Weather reports worldwide

Advertisment
Thorney Island, United Kingdom (3872): temperature & dewpoint: 15.01.2021 05:00:00 - 21.01.2021 05:00:00 (GMT)Thorney Island, United Kingdom (3872): temperature -20cm & temperature -100cm: 15.01.2021 05:00:00 - 21.01.2021 05:00:00 (GMT)Thorney Island, United Kingdom (3872): wind speed & gusts: 15.01.2021 05:00:00 - 21.01.2021 05:00:00 (GMT)Thorney Island, United Kingdom (3872): wind direction: 15.01.2021 05:00:00 - 21.01.2021 05:00:00 (GMT)Thorney Island, United Kingdom (3872): reduced air pressure: 15.01.2021 05:00:00 - 21.01.2021 05:00:00 (GMT)Thorney Island, United Kingdom (3872): visibility: 15.01.2021 05:00:00 - 21.01.2021 05:00:00 (GMT)Thorney Island, United Kingdom (3872): precipitation: 15.01.2021 05:00:00 - 21.01.2021 05:00:00 (GMT)
Date & Time tt [°C] td [°C] tt -20cm [°C] tt -100cm [°C] ff [km/h] ff [kn] fx [km/h] fx [kn] dd ppp [hPa] vv [km] rr [mm]
21.01.2021 05:00:00 5,9 2,2 - - 34 18 46 25 WSW 987,4 30 0,0
21.01.2021 04:00:00 5,4 2,0 - - 29 16 48 26 WSW 986,6 40 0,0
21.01.2021 03:00:00 5,4 1,7 - - 37 20 54 29 WSW 985,7 50 0,0
21.01.2021 02:00:00 4,8 1,7 - - 35 19 68 37 W 984,2 50 0,0
21.01.2021 01:00:00 5,1 1,7 - - 42 23 67 36 W 982,0 50 0,0
21.01.2021 00:00:00 5,8 3,6 - - 41 22 70 38 WSW 980,0 50 0,0
20.01.2021 23:00:00 8,1 6,5 - - 55 30 81 44 WSW 976,7 11 0,8
20.01.2021 22:00:00 8,7 7,9 - - 46 25 63 34 S 976,7 2,2 0,2
20.01.2021 21:00:00 8,6 7,0 - - 41 22 61 33 S 978,6 8 0,2
20.01.2021 20:00:00 8,9 6,5 - - 42 23 63 34 S 980,5 10 0,0
20.01.2021 19:00:00 9,0 6,4 - - 44 24 61 33 S 982,3 11 0,0
20.01.2021 18:00:00 9,0 6,9 - - 46 25 61 33 S 983,6 11 0,0
20.01.2021 17:00:00 9,0 7,7 - - 42 23 55 30 SSW 984,4 9 1,4
20.01.2021 16:00:00 8,5 7,3 - - 35 19 50 27 S 985,3 9 0,6
20.01.2021 15:00:00 8,3 7,5 - - 34 18 - - S 986,4 6 1,2
20.01.2021 14:00:00 8,5 7,4 - - 34 18 46 25 S 987,2 7 0,4
20.01.2021 13:00:00 8,8 7,5 - - 34 18 48 26 S 988,5 9 0,0
20.01.2021 12:00:00 8,4 7,5 - - 39 21 52 28 S 989,5 9 0,6
20.01.2021 11:00:00 8,5 7,5 - - 37 20 57 31 S 990,8 7 0,6
20.01.2021 10:00:00 9,0 7,6 - - 42 23 61 33 SSW 991,2 9 0,4
20.01.2021 09:00:00 8,8 7,8 7,4 7,7 46 25 63 34 SSW 991,7 3,7 0,6
20.01.2021 08:00:00 8,5 7,7 - - 44 24 61 33 SSW 992,2 3,2 0,2
20.01.2021 07:00:00 8,9 7,5 - - 41 22 54 29 SSW 992,8 11 0,6
20.01.2021 06:00:00 9,0 7,6 - - 42 23 63 34 SSW 993,5 8 0,0
20.01.2021 05:00:00 8,8 7,7 - - 46 25 65 35 SSW 994,1 6 0,0
20.01.2021 04:00:00 9,0 7,7 - - 48 26 63 34 SSW 994,6 4,5 0,0
20.01.2021 03:00:00 8,9 7,7 - - 44 24 61 33 SSW 995,2 9 0,0
20.01.2021 02:00:00 9,1 7,6 - - 50 27 65 35 SSW 996,1 12 0,0
20.01.2021 01:00:00 8,7 8,1 - - 48 26 68 37 SSW 996,6 9 0,2
20.01.2021 00:00:00 8,8 8,2 - - 46 25 61 33 SSW 997,6 3,8 0,0
19.01.2021 23:00:00 8,9 8,1 - - 44 24 59 32 SSW 998,5 7 0,0
19.01.2021 22:00:00 8,8 8,0 - - 42 23 59 32 SSW 999,1 8 0,0
19.01.2021 21:00:00 8,8 7,6 - - 46 25 59 32 SSW 999,9 8 0,2
19.01.2021 20:00:00 8,4 7,7 - - 41 22 55 30 SSW 1000,8 4,0 0,2
19.01.2021 19:00:00 8,8 7,0 - - 39 21 50 27 SSW 1001,5 12 0,2
19.01.2021 18:00:00 9,0 7,1 - - 35 19 48 26 SSW 1002,4 14 0,0
19.01.2021 17:00:00 8,8 7,4 - - 35 19 46 25 SSW 1003,5 14 0,0
19.01.2021 16:00:00 8,7 7,5 - - 35 19 46 25 SSW 1004,1 13 0,0
19.01.2021 15:00:00 8,8 7,5 - - 29 16 54 29 SW 1005,1 22 0,0
19.01.2021 14:00:00 9,2 7,9 - - 39 21 54 29 SW 1005,9 8 0,0
19.01.2021 13:00:00 9,0 7,9 - - 34 18 46 25 SW 1007,0 8 0,2
19.01.2021 12:00:00 9,3 8,1 - - 29 16 54 29 WSW 1007,8 24 0,0
19.01.2021 11:00:00 9,6 7,1 - - 41 22 55 30 WSW 1008,4 30 0,0
19.01.2021 10:00:00 9,6 8,1 - - 37 20 57 31 WSW 1008,7 22 0,0
19.01.2021 09:00:00 9,6 8,7 6,5 7,7 37 20 61 33 WSW 1008,5 22 0,0
19.01.2021 08:00:00 9,7 8,7 - - 42 23 57 31 WSW 1008,3 15 0,2
19.01.2021 07:00:00 9,7 8,7 - - 41 22 59 32 WSW 1008,4 15 0,0
19.01.2021 06:00:00 9,5 8,8 - - 35 19 59 32 WSW 1008,5 13 0,6
19.01.2021 05:00:00 9,4 8,8 - - 42 23 59 32 WSW 1008,5 9 1,0
19.01.2021 04:00:00 9,7 8,9 - - 42 23 55 30 WSW 1008,7 9 1,6
19.01.2021 03:00:00 9,3 8,7 - - 41 22 59 32 SW 1009,0 4,5 0,6
19.01.2021 02:00:00 8,5 8,0 - - 50 27 61 33 SSW 1009,7 5 1,6
19.01.2021 01:00:00 8,3 7,7 - - 46 25 65 35 SSW 1011,4 5 0,0
19.01.2021 00:00:00 8,5 7,9 - - 41 22 55 30 SW 1012,7 5 0,2
18.01.2021 23:00:00 8,2 7,7 - - 41 22 52 28 SSW 1013,9 5 0,0
18.01.2021 22:00:00 7,6 7,2 - - 37 20 50 27 SSW 1015,0 4,8 0,4
18.01.2021 21:00:00 7,4 6,8 - - 39 21 50 27 SSW 1016,1 2,1 0,2
18.01.2021 20:00:00 7,4 6,6 - - 34 18 - - SSW 1017,3 7 0,0
18.01.2021 19:00:00 7,6 6,1 - - 22 12 - - SSW 1018,1 15 0,0
18.01.2021 18:00:00 7,6 5,7 - - 21 11 - - SW 1019,1 17 0,0
18.01.2021 17:00:00 7,6 5,3 - - 18 10 - - SW 1019,7 21 0,0
18.01.2021 16:00:00 7,4 5,2 - - 18 10 - - SW 1020,2 26 0,0
18.01.2021 15:00:00 7,4 4,7 - - 18 10 - - SW 1020,9 35 0,0
18.01.2021 14:00:00 7,4 4,2 - - 18 10 - - SW 1021,5 45 0,0
18.01.2021 13:00:00 7,4 5,1 - - 15 8 - - SW 1022,5 35 0,0
18.01.2021 12:00:00 6,9 4,6 - - 11 6 - - W 1023,7 30 0,0
18.01.2021 11:00:00 5,8 5,2 - - 9 5 - - W 1024,4 30 0,0
18.01.2021 10:00:00 2,6 2,3 - - 2 1 - - SSE 1024,6 11 0,0
18.01.2021 09:00:00 1,5 1,2 6,2 7,7 4 2 - - NNE 1024,6 10 0,0
18.01.2021 08:00:00 1,7 1,4 - - 4 2 - - W 1024,8 13 0,0
18.01.2021 07:00:00 0,2 -0,3 - - 4 2 - - NW 1024,7 2,1 0,0
18.01.2021 06:00:00 2,0 1,6 - - 8 4 - - W 1024,6 15 0,0
18.01.2021 05:00:00 0,6 -0,1 - - 0 0 - - N 1024,9 2,4 0,0
18.01.2021 04:00:00 3,0 2,5 - - 13 7 - - W 1025,2 17 0,0
18.01.2021 03:00:00 0,9 0,1 - - 5 3 - - W 1025,9 10 0,0
18.01.2021 02:00:00 3,0 2,5 - - 8 4 - - WNW 1026,4 13 0,0
18.01.2021 01:00:00 0,3 -0,7 - - 4 2 - - NNW 1026,7 7 0,0
18.01.2021 00:00:00 3,5 2,9 - - 13 7 55 30 W 1027,0 16 0,0
17.01.2021 23:00:00 2,4 1,5 - - 5 3 - - W 1027,4 12 0,0
17.01.2021 22:00:00 3,4 2,2 - - 8 4 - - WNW 1027,6 14 0,0
17.01.2021 21:00:00 4,3 2,6 - - 8 4 - - WNW 1027,5 18 0,0
17.01.2021 20:00:00 4,3 2,5 - - 8 4 - - W 1027,1 18 0,0
17.01.2021 19:00:00 4,8 2,7 - - 11 6 - - W 1027,7 20 0,0
17.01.2021 18:00:00 4,7 2,0 - - 9 5 - - WNW 1027,4 29 0,0
17.01.2021 17:00:00 5,4 2,0 - - 9 5 - - W 1027,2 45 0,0
17.01.2021 16:00:00 6,3 2,0 - - 13 7 - - W 1026,6 40 0,0
17.01.2021 15:00:00 7,1 1,6 - - 15 8 - - WNW 1026,0 45 0,0
17.01.2021 14:00:00 7,2 1,2 - - 18 10 - - NW 1025,7 40 0,0
17.01.2021 13:00:00 7,3 1,7 - - 16 9 - - NW 1025,7 35 0,0
17.01.2021 12:00:00 6,6 1,8 - - 16 9 - - NW 1025,9 50 0,0
17.01.2021 11:00:00 5,9 1,9 - - 18 10 - - WNW 1026,0 23 0,0
17.01.2021 10:00:00 5,0 2,3 - - 15 8 - - WNW 1025,1 26 0,0
17.01.2021 09:00:00 3,3 1,7 6,7 7,7 8 4 - - WNW 1024,3 20 0,0
17.01.2021 08:00:00 3,1 1,2 - - 8 4 - - WNW 1023,0 19 0,0
17.01.2021 07:00:00 3,7 1,4 - - 13 7 - - WNW 1022,1 18 0,0
17.01.2021 06:00:00 4,5 2,0 - - 15 8 - - WNW 1021,5 16 0,0
17.01.2021 05:00:00 4,9 1,8 - - 18 10 - - WNW 1021,1 20 0,0
17.01.2021 04:00:00 5,2 1,9 - - 13 7 - - WNW 1020,7 23 0,0
17.01.2021 03:00:00 6,3 1,7 - - 21 11 - - W 1020,1 25 0,0
17.01.2021 02:00:00 5,9 2,1 - - 15 8 - - W 1020,2 25 0,0
17.01.2021 01:00:00 6,2 2,6 - - 15 8 - - W 1020,1 26 0,0
17.01.2021 00:00:00 6,4 3,7 - - 11 6 - - W 1019,8 24 0,0
16.01.2021 23:00:00 6,8 3,9 - - 13 7 - - WNW 1019,7 30 0,0
16.01.2021 22:00:00 6,9 4,6 - - 13 7 - - WNW 1019,3 23 0,0
16.01.2021 21:00:00 7,1 4,8 - - 15 8 - - W 1019,0 22 0,0
16.01.2021 20:00:00 7,3 5,0 - - 13 7 - - W 1018,8 21 0,0
16.01.2021 19:00:00 7,4 5,1 - - 15 8 - - WNW 1018,5 27 0,0
16.01.2021 18:00:00 7,5 4,8 - - 16 9 - - W 1017,6 45 0,0
16.01.2021 17:00:00 7,5 3,8 - - 13 7 - - W 1017,2 50 0,0
16.01.2021 16:00:00 8,3 3,6 - - 18 10 - - NW 1016,6 50 0,0
16.01.2021 15:00:00 9,1 5,3 - - 21 11 - - NW 1015,9 50 0,0
16.01.2021 14:00:00 9,8 6,9 - - 18 10 - - WNW 1015,3 50 0,0
16.01.2021 13:00:00 9,6 8,0 - - 22 12 - - WNW 1015,2 35 0,0
16.01.2021 12:00:00 7,7 7,2 - - 29 16 - - SW 1015,5 6 0,2
16.01.2021 11:00:00 5,8 5,1 - - 26 14 50 27 SSW 1017,7 4,9 0,2
16.01.2021 10:00:00 5,6 4,9 - - 37 20 54 29 SSW 1018,7 2,8 0,2
16.01.2021 09:00:00 5,8 5,0 6,5 7,7 35 19 50 27 S 1019,3 9 0,8
16.01.2021 08:00:00 5,4 4,6 - - 35 19 48 26 S 1020,6 5 1,4
16.01.2021 07:00:00 4,9 3,7 - - 37 20 46 25 S 1021,9 9 1,4
16.01.2021 06:00:00 4,1 2,5 - - 31 17 46 25 S 1023,3 11 1,6
16.01.2021 05:00:00 3,6 1,3 - - 29 16 - - S 1025,0 11 0,4
16.01.2021 04:00:00 3,9 -0,8 - - 29 16 - - SSE 1025,9 45 0,0
16.01.2021 03:00:00 3,8 -1,8 - - 29 16 - - SSE 1027,2 50 0,0
16.01.2021 02:00:00 3,9 -1,1 - - 31 17 - - S 1027,5 50 0,0
16.01.2021 01:00:00 4,2 -1,2 - - 29 16 - - S 1028,6 45 0,0
16.01.2021 00:00:00 4,4 -0,3 - - 29 16 - - S 1029,0 45 0,0
15.01.2021 23:00:00 4,6 0,0 - - 28 15 - - S 1029,5 50 0,0
15.01.2021 22:00:00 4,4 0,3 - - 26 14 - - SSW 1030,1 45 0,0
15.01.2021 21:00:00 4,2 0,7 - - 26 14 - - S 1030,1 50 0,0
15.01.2021 20:00:00 2,1 1,1 - - 8 4 - - E 1030,4 10 0,0
15.01.2021 19:00:00 2,0 0,9 - - 8 4 - - E 1030,6 10 0,0
15.01.2021 18:00:00 1,2 -0,5 - - 8 4 - - NE 1030,5 16 0,0
15.01.2021 17:00:00 2,4 -0,1 - - 5 3 - - E 1030,6 26 0,0
15.01.2021 16:00:00 3,0 -0,4 - - 5 3 - - E 1030,7 30 0,0
15.01.2021 15:00:00 4,1 -0,2 - - 8 4 - - E 1030,8 35 0,0
15.01.2021 14:00:00 4,5 0,6 - - 5 3 - - NE 1030,7 22 0,0
15.01.2021 13:00:00 4,2 1,0 - - 11 6 - - NE 1030,8 23 0,0
15.01.2021 12:00:00 3,7 0,8 - - 13 7 - - NE 1031,0 30 0,0
15.01.2021 11:00:00 2,6 0,3 - - 15 8 - - NNE 1031,2 23 0,0
15.01.2021 10:00:00 1,2 -0,5 - - 11 6 - - N 1031,0 21 0,0
15.01.2021 09:00:00 0,1 -1,0 7,0 7,7 13 7 - - N 1030,2 16 0,0
15.01.2021 08:00:00 -0,1 -1,2 - - 13 7 - - N 1029,5 15 0,0
15.01.2021 07:00:00 0,1 -1,1 - - 16 9 - - N 1028,7 19 0,0
15.01.2021 06:00:00 0,3 -1,1 - - 15 8 - - N 1028,2 22 0,0
15.01.2021 05:00:00 0,8 -0,7 - - 15 8 - - N 1027,4 29 0,0

tt = temperature
td = dewpoint
tt -20cm = temperature -20cm
tt -100cm = temperature -100cm
ff = wind speed
fx = gusts
dd = wind direction
ppp = reduced air pressure
vv = visibility
rr = precipitation

Next stations